Atlantic - Newfoundland: Past 24 Hour Conditions

 

Englee

08:30 PM NDT 22 August 2014
This table is a summary of hourly weather conditions for the past 24 hours.
Date / Time
(NDT)
Wind(knots) Conditions Visibility(km) Pressure(kPa) Air tempC) Relative humidity(%) Dew pointC)
22 August 2014
20:30 NNW 5 N/A N/A 102.0 12 92 11
19:30 NNW 4 N/A N/A 101.9 13 89 11
18:30 NNW 5 N/A N/A 101.9 14 85 11
17:30 NNW 3 N/A N/A 101.9 15 82 12
16:30 N 6 N/A N/A 101.9 15 84 13
15:30 NNW 6 N/A N/A 101.9 15 90 13
14:30 NNW 5 N/A N/A 101.9 15 93 14
13:30 NNW 9 N/A N/A 102.0 15 91 14
12:30 NNW 11 gust 16 N/A N/A 102.0 15 92 13
11:30 NNW 10 N/A N/A 102.0 14 94 13
10:30 NNW 10 gust 15 N/A N/A 102.0 13 95 12
9:30 NNW 8 gust 16 N/A N/A 102.0 12 98 11
8:30 NNW 12 N/A N/A 102.0 12 98 11
7:30 NNW 13 gust 18 N/A N/A 102.0 11 100 11
6:30 NNW 15 gust 21 N/A N/A 101.9 11 100 11
5:30 NNW 12 gust 19 N/A N/A 101.9 11 100 11
4:30 NNW 15 N/A N/A 101.9 11 100 11
3:30 NW 14 N/A N/A 101.9 12 100 12
2:30 NNW 15 gust 22 N/A N/A 101.8 12 100 12
1:30 NW 15 gust 20 N/A N/A 101.8 12 100 12
0:30 NW 17 N/A N/A 101.8 12 100 12
21 August 2014
23:30 NW 13 gust 19 N/A N/A 101.8 13 100 13
22:30 NW 16 N/A N/A 101.8 13 100 13
21:30 NNW 15 gust 22 N/A N/A 101.8 13 100 13
20:30 NNW 9 N/A N/A 101.7 13 99 13
 
Map of Atlantic - Newfoundland marine weather areas Southwestern Grand Banks - 44138 Banquereau - 44139 Tail of the Bank - 44140 Nickerson Bank - 44251 Northeast Burgeo Bank - 44255 Blanc-Sablon Airport Cap Whittle Chevery Natashquan Airport Heath Point Miscou Island Grand Étang Ingonish Beach North Mountain St.Paul Island J.A. Douglas McCurdy Sydney Airport Charlottetown Airport East Point North Cape Argentia Bonavista Burgeo Cape Race Corner Brook Daniel's Harbour Englee Ferolle Point La Scie Port aux Basques Rocky Harbour Sagona Island St. Anthony Airport St. John's Int'l Airport St. Lawrence Stephenville Airport Twillingate Winterland Wreckhouse Cartwright Airport Mary's Harbour Grates Cove Pool's Island Marticot Island Long Pond Îles de la Madeleine Airport
Legend: buoyBuoy land stationLand Station